Regional Weather Roundup
Issued by NWS

Home | Current Version | Previous Version | Graphics & Text | Print | Product List | Glossary On
Versions: 1 2 3 4 5 6 7 8 9 10 11 12 13 14 15 16 17 18 19 20 21 22 23 24 25 26 27
000
ASUS45 KSLC 221210
RWRUT

UTAH REGIONAL WEATHER ROUNDUP
NATIONAL WEATHER SERVICE SALT LAKE CITY UT
600 AM MDT SUN OCT 22 2017

UTZ001>011-023>025-221300-

NORTHERN UTAH

CITY           SKY/WX    TMP DP  RH WIND       PRES   REMARKS
BRIGHAM CITY   CLOUDY    49  20  31 CALM      30.35S
HILL AFB       CLOUDY    47  18  31 SE9       30.35R
LOGAN          CLOUDY    39  29  67 CALM      30.33R
OGDEN          CLOUDY    47  21  35 S8        30.34S
SALT LAKE CITY MOCLDY    48  24  39 SE7       30.35R
TOOELE VALLEY  PTCLDY    41  19  42 S5        30.36R
WENDOVER       PTCLDY    38  22  52 CALM      30.35R
WEST JORDAN    CLOUDY    45  23  42 S8        30.37R

$$

UTZ011>015-024>027-221300-

CENTRAL/NORTHEAST UTAH

CITY           SKY/WX    TMP DP  RH WIND       PRES   REMARKS
PROVO AIRPORT  CLOUDY    39  25  57 SE5       30.40R
DELTA          MOCLDY    32  19  59 E7        30.39R WCI  26
PRICE          CLEAR     33  16  49 N8        30.38R WCI  26
RICHFIELD      CLEAR     27  19  74 CALM      30.43R
ROOSEVELT      CLOUDY    32  18  55 CALM      30.39R
VERNAL         CLOUDY    31  18  58 W3        30.36R

$$

UTZ013>016-019>022-027-221300-

SOUTHERN UTAH

CITY           SKY/WX    TMP DP  RH WIND       PRES   REMARKS
BRYCE CANYON   PTCLDY    26  14  60 W9        30.45R WCI  17
CEDAR CITY     PTCLDY    29  16  58 NE5       30.38R WCI  24
MILFORD        PTCLDY    30  11  45 SW9       30.38R WCI  22
ST GEORGE      MOSUNNY   49  12  22 CALM      30.34R
HANKSVILLE     CLEAR     32  12  43 CALM      30.39S
KANAB          CLEAR     30  14  51 CALM      30.41R
BLANDING         N/A     35   6  29 N7        30.46R WCI  29

$$

REGIONAL REPORTS     COLORADO/ARIZONA

CITY           SKY/WX    TMP DP  RH WIND       PRES   REMARKS
CRAIG, CO      CLOUDY    30  25  81 CALM      30.38R
GRAND JUNCTION CLOUDY    33  17  51 E10       30.39R WCI  25
RIFLE, CO      CLOUDY    28  23  81 CALM      30.43R
MONTROSE, CO   CLOUDY    28  15  58 S7        30.44R WCI  21
CORTEZ, CO     CLOUDY    25  12  58 E6        30.38F WCI  18
COLORADO CITY    N/A     32  14  47 E3        30.40R
PAGE, AZ       PTCLDY    46  16  30 W3        30.35R
GRAND CANYON   MOCLDY    27   7  42 NE5       30.42R WCI  22
KINGMAN, AZ    CLEAR     44  14  29 E6        30.28S
FLAGSTAFF, AZ  PTCLDY    25  11  55 CALM      30.41S

$$

REGIONAL REPORTS    NEVADA/IDAHO/WYOMING

CITY           SKY/WX    TMP DP  RH WIND       PRES   REMARKS
LAS VEGAS, NV  CLEAR     58  19  22 W6        30.26R
ELY, NY        PTCLDY    29  18  63 S13       30.42R WCI  19
ELKO, NV       PTCLDY    31  25  78 CALM      30.36R
POCATELLO, ID  CLOUDY    50  34  54 S13       30.25S
BURLEY, ID     PTCLDY    45  36  70 S18       30.24S
FORT BRIDGER,  CLOUDY    41  25  53 W17G24    30.35F
EVANSTON, WY   CLOUDY    36  19  50 SW12      30.36R WCI  28
ROCK SPRINGS,  CLOUDY    36  17  46 S20       30.30S WCI  25
KEMMERER, WY   CLOUDY    34  21  60 SW5       30.32R WCI  30

$$




USA.gov is the U.S. government's official web portal to all federal, state and local government web resources and services.